Location: Unspecified
(0.0000°N, 0.0000°E)
Time: 21:43:29
(UTC+00:00)

Explorer 7 - Pass Details

Date: 22 June 2025
Orbit: 444 x 569 km, 50.3° (Epoch: 12 July)

Event Time Altitude Azimuth Distance (km) Brightness Sun altitude
Rises 10:24:20 0° 222° (SW) 2,741 10.0 56.6°
Reaches altitude 10° 10:26:38 10° 225° (SW) 1,830 9.3 57.0°
Maximum altitude 10:30:46 63° 306° (NW) 602 7.9 57.7°
Drops below altitude 10° 10:34:44 10° 28° (NNE) 1,755 10.1 58.4°
Sets 10:36:54 0° 31° (NNE) 2,618 10.7 58.7°
